Location: Katzenstein
(51.7484°N, 10.2155°E)
Time: 14:40:26
(UTC+00:00)

SMAP - Pass Details

Date: 17 February 2020
Orbit: 681 x 683 km, 98.1° (Epoch: 28 March)

Event Time Altitude Azimuth Distance (km) Brightness Sun altitude
Rises 05:52:42 0° 14° (NNE) 3,060 6.5 -6.5°
Reaches altitude 10° 05:54:57 10° 15° (NNE) 2,140 5.7 -6.2°
Maximum altitude 05:59:38 89° 91° (E) 691 3.1 -5.5°
Drops below altitude 10° 06:04:18 10° 196° (SSW) 2,122 5.6 -4.8°
Sets 06:06:32 0° 196° (SSW) 3,033 6.4 -4.5°
